FW2000 Weather Reports


Display with metric or nautical units.
time (UTC)temp
F
wind
direction
speed
MPH
gust
MPH
rain 1hr
in
rain 24hr
in
rain mn
in
humidity
%
barometer
mb
20260508033026 67 242 1.0 3.0 0.00 0.00 0.00 69 1016.8
20260508032521 68 244 1.0 3.0 0.00 0.00 0.00 69 1016.8
20260508032020 68 244 1.0 4.0 0.00 0.00 0.00 70 1016.7
20260508031521 68 244 1.0 4.0 0.00 0.00 0.00 70 1016.7
20260508031020 68 243 1.0 3.0 0.00 0.00 0.00 69 1016.7
20260508030523 69 249 2.0 4.0 0.00 0.00 0.00 69 1016.6
20260508030025 69 250 1.0 4.0 0.00 0.00 0.00 69 1016.6
20260508025519 69 244 1.0 4.0 0.00 0.00 0.00 69 1016.6
20260508025019 69 250 2.0 4.0 0.00 0.00 0.00 68 1016.6
20260508024520 70 259 2.0 5.0 0.00 0.00 0.00 68 1016.5
20260508024019 70 249 2.0 5.0 0.00 0.00 0.00 68 1016.5
20260508023519 70 255 2.0 7.0 0.00 0.00 0.00 68 1016.5
20260508023016 70 284 3.0 8.0 0.00 0.00 0.00 67 1016.4
20260508022517 71 273 3.0 8.0 0.00 0.00 0.00 67 1016.4
20260508022016 71 279 4.0 7.0 0.00 0.00 0.00 67 1016.4
20260508021515 71 248 2.0 8.0 0.00 0.00 0.00 66 1016.4
20260508021015 71 240 3.0 12.0 0.00 0.00 0.00 66 1016.4
20260508020516 72 252 3.0 9.0 0.00 0.00 0.00 65 1016.4
20260508020115 72 256 3.0 9.0 0.00 0.00 0.00 65 1016.4
20260508015513 72 261 4.0 9.0 0.00 0.00 0.00 65 1016.4
20260508015013 73 273 5.0 12.0 0.00 0.00 0.00 63 1016.4
20260508014513 73 259 5.0 12.0 0.00 0.00 0.00 64 1016.4
20260508014013 73 247 4.0 11.0 0.00 0.00 0.00 63 1016.4
20260508013513 74 290 3.0 8.0 0.00 0.00 0.00 63 1016.5
20260508013012 74 290 5.0 10.0 0.00 0.00 0.00 61 1016.4
20260508012512 74 243 3.0 11.0 0.00 0.00 0.00 62 1016.4
20260508012012 74 247 3.0 13.0 0.00 0.00 0.00 60 1016.3
20260508011513 74 266 5.0 13.0 0.00 0.00 0.00 61 1016.3
20260508011012 75 247 5.0 13.0 0.00 0.00 0.00 60 1016.4
20260508010510 75 240 3.0 8.0 0.00 0.00 0.00 59 1016.3
20260508010009 75 277 4.0 8.0 0.00 0.00 0.00 59 1016.4
20260508005509 75 266 3.0 9.0 0.00 0.00 0.00 59 1016.5
20260508005011 75 275 4.0 9.0 0.00 0.00 0.00 58 1016.4
20260508004507 76 248 3.0 12.0 0.00 0.00 0.00 57 1016.5
20260508004007 76 271 4.0 12.0 0.00 0.00 0.00 58 1016.6
20260508003506 76 267 5.0 11.0 0.00 0.00 0.00 55 1016.6
20260508003006 76 296 4.0 10.0 0.00 0.00 0.00 56 1016.6
20260508002506 76 252 4.0 10.0 0.00 0.00 0.00 54 1016.6
20260508002008 76 244 4.0 12.0 0.00 0.00 0.00 56 1016.6
20260508001506 76 308 4.0 9.0 0.00 0.00 0.00 54 1016.6
20260508001004 77 289 5.0 9.0 0.00 0.00 0.00 55 1016.7
20260508000504 77 253 3.0 9.0 0.00 0.00 0.00 53 1016.6
20260508000003 77 266 3.0 9.0 0.00 0.00 0.00 54 1016.7
20260507235502 77 267 3.0 9.0 0.00 0.00 0.00 55 1016.8
20260507235002 77 270 4.0 10.0 0.00 0.00 0.00 56 1016.8
20260507234601 77 291 4.0 10.0 0.00 0.00 0.00 55 1016.8
20260507234100 76 244 4.0 10.0 0.00 0.00 0.00 55 1016.9
20260507233600 76 269 4.0 12.0 0.00 0.00 0.00 53 1016.9
20260507233106 77 248 6.0 12.0 0.00 0.00 0.00 52 1016.9
20260507232600 77 277 3.0 9.0 0.00 0.00 0.00 54 1017.0
20260507232058 77 259 2.0 7.0 0.00 0.00 0.00 53 1017.0
20260507231557 77 240 2.0 7.0 0.00 0.00 0.00 53 1017.0
20260507231057 77 223 3.0 8.0 0.00 0.00 0.00 54 1017.0
20260507230600 77 261 3.0 10.0 0.00 0.00 0.00 51 1017.0
20260507230055 77 261 3.0 10.0 0.00 0.00 0.00 54 1017.0
20260507225556 77 250 3.0 9.0 0.00 0.00 0.00 54 1017.2
20260507225054 77 259 4.0 9.0 0.00 0.00 0.00 54 1017.2
20260507224558 77 280 4.0 9.0 0.00 0.00 0.00 54 1017.2
20260507224052 77 266 5.0 12.0 0.00 0.00 0.00 52 1017.3
20260507223551 77 240 6.0 12.0 0.00 0.00 0.00 54 1017.4
20260507223052 77 249 3.0 11.0 0.00 0.00 0.00 57 1017.4
20260507222549 76 287 3.0 10.0 0.00 0.00 0.00 56 1017.5
20260507222048 76 294 3.0 10.0 0.00 0.00 0.00 57 1017.6
20260507221547 76 208 3.0 12.0 0.00 0.00 0.00 57 1017.6
20260507221047 76 273 2.0 10.0 0.00 0.00 0.00 57 1017.7
20260507220545 76 286 3.0 8.0 0.00 0.00 0.00 57 1017.8
20260507220044 75 244 4.0 8.0 0.00 0.00 0.00 56 1017.9
20260507215548 75 257 4.0 8.0 0.00 0.00 0.00 57 1017.9
20260507215043 75 307 4.0 11.0 0.00 0.00 0.00 58 1018.1
20260507214543 75 274 5.0 12.0 0.00 0.00 0.00 57 1018.1
20260507214043 75 272 6.0 12.0 0.00 0.00 0.00 57 1018.1
20260507213543 75 293 5.0 11.0 0.00 0.00 0.00 58 1018.1
20260507213048 76 227 4.0 9.0 0.00 0.00 0.00 57 1018.1
20260507212544 75 294 2.0 7.0 0.00 0.00 0.00 58 1018.3
20260507212040 75 247 3.0 7.0 0.00 0.00 0.00 57 1018.2
20260507211540 75 252 3.0 10.0 0.00 0.00 0.00 61 1018.4
20260507211039 74 283 4.0 11.0 0.00 0.00 0.00 56 1018.5
20260507210539 74 264 5.0 11.0 0.00 0.00 0.00 55 1018.6
20260507210045 75 223 3.0 11.0 0.00 0.00 0.00 58 1018.6
20260507205537 75 257 3.0 10.0 0.00 0.00 0.00 57 1018.6
20260507205035 75 296 5.0 10.0 0.00 0.00 0.00 57 1018.7
20260507204535 75 254 4.0 9.0 0.00 0.00 0.00 58 1018.7
20260507204035 75 255 3.0 10.0 0.00 0.00 0.00 59 1018.6
20260507203532 74 288 4.0 10.0 0.00 0.00 0.00 59 1018.7
20260507203034 74 258 3.0 7.0 0.00 0.00 0.00 60 1018.7
20260507202530 74 271 3.0 8.0 0.00 0.00 0.00 61 1018.7
20260507202033 74 254 3.0 8.0 0.00 0.00 0.00 60 1018.8
20260507201529 74 233 2.0 7.0 0.00 0.00 0.00 62 1018.9
20260507201028 74 242 4.0 8.0 0.00 0.00 0.00 59 1018.9
20260507200528 74 261 3.0 9.0 0.00 0.00 0.00 61 1018.9
20260507200026 74 286 4.0 9.0 0.00 0.00 0.00 62 1018.8
20260507195525 74 244 3.0 6.0 0.00 0.00 0.00 63 1018.9
20260507195024 74 268 2.0 7.0 0.00 0.00 0.00 61 1018.8
20260507194531 74 244 3.0 9.0 0.00 0.00 0.00 59 1018.9
20260507194021 74 284 3.0 8.0 0.00 0.00 0.00 61 1019.0
20260507193521 74 282 2.0 7.0 0.00 0.00 0.00 60 1019.0
20260507193026 74 250 2.0 8.0 0.00 0.00 0.00 63 1019.0
20260507192518 73 279 3.0 10.0 0.00 0.00 0.00 62 1019.1
20260507192017 73 277 4.0 10.0 0.00 0.00 0.00 62 1019.1
20260507191528 73 287 4.0 10.0 0.00 0.00 0.00 63 1019.1
20260507191014 73 285 3.0 10.0 0.00 0.00 0.00 64 1019.1
20260507190513 73 282 3.0 9.0 0.00 0.00 0.00 62 1019.1
20260507190011 73 283 4.0 9.0 0.00 0.00 0.00 62 1019.1
20260507185509 73 285 2.0 7.0 0.00 0.00 0.00 62 1019.2
20260507185011 73 315 3.0 7.0 0.00 0.00 0.00 61 1019.2
20260507184506 73 246 2.0 7.0 0.00 0.00 0.00 61 1019.3
20260507184006 73 306 2.0 7.0 0.00 0.00 0.00 63 1019.3
20260507183506 73 323 2.0 7.0 0.00 0.00 0.00 63 1019.3
20260507183002 73 282 2.0 8.0 0.00 0.00 0.00 63 1019.3
20260507182502 73 279 2.0 8.0 0.00 0.00 0.00 61 1019.3
20260507182101 73 300 2.0 7.0 0.00 0.00 0.00 61 1019.3
20260507181611 73 270 2.0 7.0 0.00 0.00 0.00 61 1019.3
20260507181058 73 250 1.0 5.0 0.00 0.00 0.00 59 1019.3
20260507180601 73 299 3.0 6.0 0.00 0.00 0.00 59 1019.3
20260507180054 74 290 2.0 6.0 0.00 0.00 0.00 60 1019.3
20260507175553 73 319 2.0 6.0 0.00 0.00 0.00 60 1019.3
20260507175052 73 313 2.0 5.0 0.00 0.00 0.00 60 1019.5
20260507174557 73 281 2.0 5.0 0.00 0.00 0.00 61 1019.4
20260507174048 72 314 3.0 5.0 0.00 0.00 0.00 61 1019.4
20260507173547 72 313 1.0 4.0 0.00 0.00 0.00 60 1019.4
20260507173116 71 315 1.0 4.0 0.00 0.00 0.00 62 1019.4
20260507172547 71 338 0.0 2.0 0.00 0.00 0.00 63 1019.4
20260507172043 71 302 0.0 3.0 0.00 0.00 0.00 62 1019.4
20260507171548 71 302 0.0 3.0 0.00 0.00 0.00 62 1019.4
20260507171042 71 295 1.0 3.0 0.00 0.00 0.00 63 1019.5
20260507170543 71 334 0.0 4.0 0.00 0.00 0.00 63 1019.6
20260507170041 70 336 2.0 4.0 0.00 0.00 0.00 61 1019.5
20260507165539 70 320 1.0 4.0 0.00 0.00 0.00 62 1019.6
20260507165038 70 355 1.0 4.0 0.00 0.00 0.00 64 1019.5
20260507164547 70 337 2.0 4.0 0.00 0.00 0.00 64 1019.7
20260507164034 69 32 1.0 3.0 0.00 0.00 0.00 64 1019.6
20260507163534 69 36 2.0 3.0 0.00 0.00 0.00 67 1019.7
20260507163033 69 44 0.0 2.0 0.00 0.00 0.00 63 1019.7
20260507162531 68 44 0.0 3.0 0.00 0.00 0.00 67 1019.7
20260507162030 68 44 1.0 3.0 0.00 0.00 0.00 68 1019.7
20260507161530 67 44 0.0 3.0 0.00 0.00 0.00 69 1019.7
20260507161028 67 78 0.0 2.0 0.00 0.00 0.00 70 1019.7
20260507160526 66 81 0.0 0.0 0.00 0.00 0.00 70 1019.8
20260507160024 66 82 0.0 0.0 0.00 0.00 0.00 72 1019.7
20260507155523 65 82 0.0 0.0 0.00 0.00 0.00 72 1019.7
20260507155021 64 86 0.0 0.0 0.00 0.00 0.00 71 1019.8
20260507154521 64 86 0.0 1.0 0.00 0.00 0.00 73 1019.7
20260507154017 63 86 0.0 2.0 0.00 0.00 0.00 70 1019.7
20260507153516 63 84 0.0 2.0 0.00 0.00 0.00 73 1019.8
20260507153015 63 75 0.0 4.0 0.00 0.00 0.00 73 1019.7
20260507152518 63 75 1.0 4.0 0.00 0.00 0.00 74 1019.8
20260507152013 62 84 1.0 3.0 0.00 0.00 0.00 73 1019.7
20260507151510 62 94 1.0 3.0 0.00 0.00 0.00 73 1019.7
20260507151009 61 92 1.0 3.0 0.00 0.00 0.00 75 1019.7
20260507150508 61 108 1.0 5.0 0.00 0.00 0.00 74 1019.8
20260507150006 61 77 2.0 5.0 0.00 0.00 0.00 76 1019.8
20260507145507 60 73 0.0 4.0 0.00 0.00 0.00 76 1019.8
20260507145003 60 105 1.0 4.0 0.00 0.00 0.00 76 1019.8
20260507144502 59 111 1.0 4.0 0.00 0.00 0.00 76 1019.9
20260507144101 59 82 2.0 5.0 0.00 0.00 0.00 77 1019.8
20260507143559 59 107 3.0 6.0 0.00 0.00 0.00 77 1019.8
20260507143114 59 84 2.0 4.0 0.00 0.00 0.00 77 1019.9
20260507142556 58 80 2.0 3.0 0.00 0.00 0.00 78 1019.8
20260507142054 58 99 1.0 3.0 0.00 0.00 0.00 78 1019.8
20260507141626 58 98 1.0 6.0 0.00 0.00 0.00 79 1019.8
20260507141056 58 94 3.0 6.0 0.00 0.00 0.00 78 1019.7
20260507140551 57 87 3.0 6.0 0.00 0.00 0.00 79 1019.7
20260507140049 57 53 4.0 8.0 0.00 0.00 0.00 79 1019.7
20260507135547 57 69 4.0 9.0 0.00 0.00 0.00 79 1019.6
20260507135046 56 73 5.0 9.0 0.00 0.00 0.00 79 1019.6
20260507134545 56 98 2.0 7.0 0.00 0.00 0.00 80 1019.6
20260507134043 56 93 2.0 8.0 0.00 0.00 0.00 80 1019.6
20260507133541 55 79 3.0 8.0 0.00 0.00 0.00 81 1019.5
20260507133041 55 109 3.0 8.0 0.00 0.00 0.00 82 1019.5
20260507132539 55 95 2.0 5.0 0.00 0.00 0.00 82 1019.5
20260507132038 55 72 3.0 8.0 0.00 0.00 0.00 82 1019.4
20260507131539 55 80 4.0 8.0 0.00 0.00 0.00 82 1019.4
20260507131036 55 88 3.0 6.0 0.00 0.00 0.00 83 1019.4
20260507130535 55 90 3.0 7.0 0.00 0.00 0.00 83 1019.4
20260507130034 55 110 2.0 7.0 0.00 0.00 0.00 83 1019.4
20260507125535 55 96 2.0 7.0 0.00 0.00 0.00 83 1019.3
20260507125033 55 92 2.0 7.0 0.00 0.00 0.00 83 1019.3
20260507124534 55 103 1.0 6.0 0.00 0.00 0.00 83 1019.3
20260507124034 55 116 0.0 6.0 0.00 0.00 0.00 84 1019.2
20260507123534 55 103 2.0 8.0 0.00 0.00 0.00 84 1019.3
20260507123039 55 86 3.0 6.0 0.00 0.00 0.00 84 1019.3
20260507122534 55 111 2.0 6.0 0.00 0.00 0.00 84 1019.3
20260507122032 55 94 2.0 6.0 0.00 0.00 0.00 83 1019.3
20260507121531 55 90 2.0 5.0 0.00 0.00 0.00 83 1019.4
20260507121032 55 74 2.0 5.0 0.00 0.00 0.00 83 1019.4
20260507120531 55 94 2.0 5.0 0.00 0.00 0.00 84 1019.4
20260507120041 55 90 1.0 6.0 0.00 0.00 0.00 84 1019.4
20260507115530 55 108 1.0 4.0 0.00 0.00 0.00 84 1019.4
20260507115030 55 98 0.0 3.0 0.00 0.00 0.00 84 1019.4
20260507114529 56 97 1.0 3.0 0.00 0.00 0.00 84 1019.5
20260507114029 56 111 1.0 3.0 0.00 0.00 0.00 84 1019.5
20260507113528 56 103 0.0 6.0 0.00 0.00 0.00 84 1019.5
20260507113039 55 86 2.0 6.0 0.00 0.00 0.00 84 1019.5
20260507112528 55 74 2.0 8.0 0.00 0.00 0.00 85 1019.5
20260507112028 55 91 4.0 8.0 0.00 0.00 0.00 85 1019.5
20260507111528 55 79 3.0 6.0 0.00 0.00 0.00 85 1019.6
20260507111026 55 74 2.0 4.0 0.00 0.00 0.00 85 1019.5
20260507110528 55 94 0.0 4.0 0.00 0.00 0.00 85 1019.6
20260507110030 55 87 1.0 4.0 0.00 0.00 0.00 85 1019.7
20260507105525 55 83 2.0 4.0 0.00 0.00 0.00 85 1019.7
20260507105025 55 93 2.0 4.0 0.00 0.00 0.00 86 1019.7
20260507104525 55 95 2.0 6.0 0.00 0.00 0.00 86 1019.7
20260507104025 55 78 2.0 6.0 0.00 0.00 0.00 85 1019.7
20260507103524 55 79 3.0 5.0 0.00 0.00 0.00 85 1019.6
20260507103023 55 72 2.0 4.0 0.00 0.00 0.00 85 1019.7
20260507102523 56 78 2.0 4.0 0.00 0.00 0.00 85 1019.7
20260507102023 56 86 1.0 3.0 0.00 0.00 0.00 85 1019.7
20260507101523 56 88 1.0 4.0 0.00 0.00 0.00 85 1019.7
20260507101022 56 82 2.0 4.0 0.00 0.00 0.00 85 1019.8
20260507100522 56 94 2.0 6.0 0.00 0.00 0.00 85 1019.8
20260507100032 56 83 2.0 6.0 0.00 0.00 0.00 85 1019.7
20260507095521 56 84 2.0 4.0 0.00 0.00 0.00 85 1019.8
20260507095021 56 82 2.0 4.0 0.00 0.00 0.00 85 1019.8
20260507094520 56 82 0.0 2.0 0.00 0.00 0.00 85 1019.8
20260507094019 56 82 0.0 3.0 0.00 0.00 0.00 85 1019.8
20260507093522 56 81 1.0 4.0 0.00 0.00 0.00 85 1019.8
20260507093019 56 80 2.0 4.0 0.00 0.00 0.00 86 1019.9
20260507092518 56 80 2.0 5.0 0.00 0.00 0.00 86 1020.0
20260507092021 56 46 2.0 5.0 0.00 0.00 0.00 86 1019.9
20260507091521 56 84 3.0 5.0 0.00 0.00 0.00 86 1020.0
20260507091017 56 74 3.0 7.0 0.00 0.00 0.00 86 1020.0
20260507090516 56 84 3.0 7.0 0.00 0.00 0.00 86 1020.0
20260507090015 56 73 4.0 6.0 0.00 0.00 0.00 86 1020.1
20260507085514 56 81 2.0 8.0 0.00 0.00 0.00 86 1020.1
20260507085014 56 76 3.0 8.0 0.00 0.00 0.00 86 1020.1
20260507084513 56 90 3.0 7.0 0.00 0.00 0.00 86 1020.3
20260507084012 56 79 2.0 6.0 0.00 0.00 0.00 87 1020.3
20260507083512 56 88 3.0 6.0 0.00 0.00 0.00 87 1020.3
20260507083012 55 96 2.0 6.0 0.00 0.00 0.00 87 1020.2
20260507082517 55 92 2.0 5.0 0.00 0.00 0.00 87 1020.3
20260507082011 55 98 3.0 6.0 0.00 0.00 0.00 87 1020.3
20260507081511 55 107 2.0 6.0 0.00 0.00 0.00 87 1020.3
20260507081011 55 79 2.0 6.0 0.00 0.00 0.00 87 1020.3
20260507080511 55 97 2.0 6.0 0.00 0.00 0.00 87 1020.3
20260507080010 55 92 2.0 4.0 0.00 0.00 0.00 87 1020.4
20260507075509 55 86 2.0 6.0 0.00 0.00 0.00 86 1020.4
20260507075009 55 89 2.0 4.0 0.00 0.00 0.00 86 1020.4
20260507074511 55 94 1.0 4.0 0.00 0.00 0.00 86 1020.4
20260507074008 55 105 0.0 3.0 0.00 0.00 0.00 86 1020.5
20260507073508 56 105 0.0 4.0 0.00 0.00 0.00 86 1020.4
20260507073007 56 109 1.0 4.0 0.00 0.00 0.00 86 1020.5
20260507072507 56 93 1.0 4.0 0.00 0.00 0.00 86 1020.5
20260507072006 56 94 1.0 4.0 0.00 0.00 0.00 85 1020.5
20260507071506 56 92 1.0 3.0 0.00 0.00 0.00 85 1020.5
20260507071005 56 94 1.0 3.0 0.00 0.00 0.00 85 1020.5
20260507070506 56 94 0.0 3.0 0.00 0.00 0.00 85 1020.6
20260507070003 56 113 0.0 3.0 0.00 0.00 0.00 84 1020.5
20260507065505 56 113 1.0 3.0 0.00 0.00 0.00 84 1020.4
20260507065003 56 122 1.0 3.0 0.00 0.00 0.00 84 1020.5
20260507064503 56 123 0.0 2.0 0.00 0.00 0.00 84 1020.6
20260507064006 56 122 0.0 3.0 0.00 0.00 0.00 84 1020.6
20260507063502 56 123 0.0 4.0 0.00 0.00 0.00 84 1020.5
20260507063002 56 118 1.0 4.0 0.00 0.00 0.00 84 1020.5
20260507062501 56 107 0.0 2.0 0.00 0.00 0.00 84 1020.5
20260507062002 56 107 0.0 3.0 0.00 0.00 0.00 83 1020.6
20260507061502 56 107 0.0 3.0 0.00 0.00 0.00 83 1020.5
20260507061004 56 46 0.0 2.0 0.00 0.00 0.00 83 1020.6
20260507060503 57 275 0.0 2.0 0.00 0.00 0.00 83 1020.6
20260507060100 57 277 0.0 0.0 0.00 0.00 0.00 83 1020.6
20260507060002 57 277 0.0 0.0 0.00 0.00 0.00 83 1020.5
20260507055600 57 280 0.0 1.0 0.00 0.00 0.00 83 1020.5
20260507055100 57 282 0.0 1.0 0.00 0.00 0.00 83 1020.5
20260507054600 57 282 0.0 0.0 0.00 0.00 0.00 82 1020.5
20260507054105 57 282 0.0 0.0 0.00 0.00 0.00 82 1020.5
20260507053600 57 282 0.0 0.0 0.00 0.00 0.00 82 1020.6
20260507053101 57 282 0.0 0.0 0.00 0.00 0.00 82 1020.6
20260507052601 57 282 0.0 0.0 0.00 0.00 0.00 82 1020.5
20260507052100 57 282 0.0 0.0 0.00 0.00 0.00 82 1020.6
20260507051600 57 282 0.0 0.0 0.00 0.00 0.00 82 1020.6
20260507051102 57 282 0.0 0.0 0.00 0.00 0.00 81 1020.6
20260507050559 57 282 0.0 0.0 0.00 0.00 0.00 81 1020.7
20260507050100 57 282 0.0 0.0 0.00 0.00 0.00 81 1020.6
20260507045559 57 282 0.0 0.0 0.00 0.00 0.00 81 1020.7
20260507045059 57 282 0.0 0.0 0.00 0.00 0.00 81 1020.7
20260507044601 57 282 0.0 1.0 0.00 0.00 0.00 81 1020.7
20260507044058 57 282 0.0 4.0 0.00 0.00 0.00 81 1020.7
20260507043558 57 282 1.0 4.0 0.00 0.00 0.00 81 1020.7
20260507043058 57 249 0.0 0.0 0.00 0.00 0.00 81 1020.7
20260507042559 57 249 0.0 2.0 0.00 0.00 0.00 80 1020.7
20260507042101 58 249 0.0 2.0 0.00 0.00 0.00 80 1020.7
20260507041606 58 249 0.0 2.0 0.00 0.00 0.00 80 1020.7
20260507041058 58 249 0.0 2.0 0.00 0.00 0.00 80 1020.5
20260507040558 58 244 0.0 1.0 0.00 0.00 0.00 80 1020.5
20260507040106 58 244 0.0 2.0 0.00 0.00 0.00 79 1020.5
20260507035557 58 244 0.0 2.0 0.00 0.00 0.00 79 1020.4
20260507035058 58 242 0.0 3.0 0.00 0.00 0.00 79 1020.4
20260507034619 58 243 1.0 3.0 0.00 0.00 0.00 79 1020.2
20260507034057 59 240 1.0 4.0 0.00 0.00 0.00 79 1020.2
20260507033557 59 238 1.0 4.0 0.00 0.00 0.00 78 1020.2